Location: Stanford Rivers
(51.6667°N, 0.2167°E)
Time: 20:36:45
(UTC+00:00)

Daily predictions for brighter satellites

Satellite Brightness Start Highest point End
(mag) Time Altitude Azimuth Time Altitude Azimuth Time Altitude Azimuth
Nadezhda 4 Rocket 4.2 19:25:02 10° N 19:31:24 85° W 19:37:40 10° S
Cosmos 2034 Rocket 4.0 19:26:05 10° S 19:32:17 77° E 19:38:35 10° NNE
In-Cosmos 22 Rocket 4.5 19:30:51 10° NNW 19:36:43 83° W 19:42:32 10° S
SAR-Lupe-1 4.4 19:35:23 10° N 19:38:59 71° WNW 19:42:33 10° SSW
Cosmos 2237 Rocket 3.0 19:34:47 10° NNW 19:40:02 37° NE 19:45:14 10° ESE
Cosmos 1464 Rocket 4.4 19:33:51 10° SSW 19:40:08 72° WNW 19:46:23 10° N
Exosat Rocket 4.1 19:33:56 10° NNW 19:41:06 68° ENE 19:46:25 10° SE
BREEZE-M DEB (TANK) 4.1 19:37:45 10° WSW 19:42:35 42° SSE 19:47:17 10° E
SJ-6B 2.7 19:39:23 10° SSE 19:43:06 87° WSW 19:46:54 10° NNW
SL-8 R/B 4.2 19:39:32 10° W 19:44:11 48° SSW 19:48:50 10° ESE
Meteor 2-10 Rocket 3.6 19:38:59 10° S 19:44:12 69° E 19:49:41 10° NNE
BREEZE-M DEB (TANK) 4.2 19:41:47 10° SW 19:44:47 43° SSE 19:52:02 10° ENE
MOS 1 4.3 19:41:33 10° SSE 19:47:11 78° ENE 19:52:52 10° NNW
Cosmos 2026 Rocket 4.0 19:41:46 10° N 19:47:49 67° ENE 19:53:54 10° SSE
Cosmos 405 3.0 19:46:53 10° S 19:50:17 59° E 19:53:44 10° NNE
OBJECT-B 1.1 19:48:17 10° S 19:51:30 70° WSW 19:54:45 10° NNW
IRS-1A Rocket 4.3 19:46:28 10° SSE 19:52:03 85° ENE 19:57:48 10° NNW
Terra 3.9 19:51:30 10° ENE 19:53:37 13° NE 19:55:45 10° NNE
SL-27 R/B 4.4 19:50:54 10° SW 19:54:06 34° WNW 19:57:18 10° N
BREEZE-M DEB (TANK) 3.9 19:50:04 10° SW 19:54:13 70° SSE 20:09:50 10° ENE
Cosmos 1892 3.3 19:50:48 10° NNW 19:54:31 58° W 19:58:14 10° S
CZ-4 R/B 4.5 19:52:02 10° SW 19:54:35 15° W 19:57:07 10° NW
NOSS 3-4 (A) 3.4 19:49:19 10° SW 19:55:14 89° SE 20:01:42 10° NE
NOSS 3-4 (C) 3.4 19:49:26 10° SW 19:55:20 88° SE 20:01:48 10° NE
Cosmos 1627 Rocket 4.5 19:51:47 10° N 19:57:57 80° E 20:04:09 10° SSE
Cosmos 2098 Rocket 4.5 19:51:50 10° N 19:58:48 84° W 20:06:15 10° S
Cosmos 2227 Rocket 3.9 19:57:04 11° ESE 19:59:17 13° E 20:01:50 10° ENE
Cosmos 1606 Rocket 4.2 19:55:56 10° SSW 20:00:15 61° WNW 20:04:35 10° N
Cosmos 2251 Rocket 3.9 19:57:42 10° S 20:02:43 43° ESE 20:07:46 10° NE
SPOT 1/Viking Rocket 4.3 19:58:13 11° SE 20:02:47 36° ENE 20:07:33 10° N
Cosmos 389 Rocket 3.7 20:00:14 11° SE 20:02:59 23° E 20:05:52 10° NE
Cosmos 2333 Rocket 2.8 19:58:05 10° NW 20:03:45 59° WSW 20:09:21 10° S
Cosmos 2297 Rocket 3.5 20:02:35 10° SE 20:06:26 19° E 20:10:17 10° ENE
BREEZE-M DEB (TANK) 1.9 20:04:15 10° W 20:06:44 48° S 20:08:17 17° ESE
Cosmos 1825 2.1 20:03:31 10° N 20:07:19 89° WSW 20:11:06 10° S
Cosmos 1634 Rocket 4.0 20:01:25 10° S 20:07:38 68° E 20:13:50 10° NNE
ATLAS 2AS CENTAUR R/B 3.0 20:01:04 10° SW 20:08:58 78° SE 20:16:42 10° NE
SPOT 3 Rocket 3.7 20:04:04 10° SSE 20:09:12 63° ENE 20:14:20 10° N
NOSS 7 (H) 4.0 20:06:32 10° SW 20:09:48 77° SE 20:12:43 10° NE
Cosmos 1726 Rocket 4.2 20:06:25 10° SSW 20:10:44 61° WNW 20:15:04 10° N
ARIANE 5 R/B 3.7 20:09:19 14° ESE 20:12:23 29° ENE 20:16:09 10° N
Ariane Rocket 3.3 20:09:40 10° S 20:14:42 68° WSW 20:19:46 10° NNW
Cosmos 1408 3.8 20:11:55 10° NNW 20:15:18 41° W 20:18:40 10° SSW
Orbus 7S? 3.5 20:16:43 10° SW 20:19:35 50° SE 20:24:58 10° ENE
CZ-4C R/B 3.2 20:16:00 10° WSW 20:21:08 51° NNW 20:27:27 10° NE
RESURS DK-1 2.3 20:18:19 10° SSW 20:22:23 61° ESE 20:26:30 10° NE
Genesis I 4.1 20:18:50 10° NNW 20:22:38 40° NE 20:25:22 17° ESE
Landsat 7 3.9 20:20:37 13° SSE 20:24:50 67° ENE 20:29:35 10° N
USA 245 3.7 20:24:37 19° SE 20:26:59 39° ENE 20:30:04 10° N
Cosmos-2242 4.2 20:25:50 19° ESE 20:27:39 25° E 20:31:10 10° NNE
Cosmos 2058 3.5 20:24:13 10° NNW 20:28:22 59° W 20:32:27 10° S
NOSS 7 (E) 4.2 20:24:51 10° SW 20:28:28 72° SE 20:31:33 10° NE
Meteor 2-1 Rocket 4.3 20:23:18 10° S 20:29:08 80° E 20:35:05 10° NNE
Cosmos 1655 Rocket 4.2 20:26:42 10° N 20:32:55 57° ENE 20:37:46 17° SSE
Cosmos 482 Debris 2.4 20:31:11 10° WSW 20:33:31 80° S 20:33:56 49° E
SL-16 R/B 3.1 20:28:47 10° NNW 20:34:04 37° NE 20:37:53 17° ESE
Cosmos 1980 3.7 20:29:49 10° NNW 20:35:33 82° ENE 20:39:45 19° SSE
Cosmos 2058 Rocket 3.9 20:32:39 10° SSW 20:36:55 53° WNW 20:41:13 10° N
COSMOS 2487 3.9 20:34:02 10° SW 20:37:16 40° WNW 20:40:32 10° N
Cosmos 614 Rocket 4.0 20:32:19 10° S 20:37:21 58° ESE 20:42:22 10° NNE
BREEZE-M DEB (TANK) 3.9 20:34:02 10° WSW 20:38:24 73° SSE 20:55:04 10° E
Cosmos 2151 3.1 20:38:28 10° N 20:42:46 61° ENE 20:45:16 23° SSE
COSMOS 2428 3.8 20:38:47 10° NW 20:44:09 41° WSW 20:49:29 10° S
Meteor 2-3 Rocket 3.9 20:38:59 10° N 20:44:43 58° ENE 20:48:26 22° SE
IRIDIUM 104 4.3 20:40:21 10° S 20:45:33 78° E 20:50:48 10° N
Cosmos 1076 Rocket 3.7 20:42:12 10° NNW 20:46:34 73° W 20:50:07 15° S
Cosmos 2344 3.5 20:39:48 10° SW 20:47:13 76° SE 20:55:18 10° NE
ATLAS 3B R/B 3.4 20:40:30 10° NW 20:47:15 51° WSW 20:53:12 15° SSE
FALCON 9 DEB 3.4 20:45:18 10° SW 20:48:34 43° SSE 20:49:45 30° ESE
Cosmos 192 4.5 20:44:00 10° NNW 20:48:59 74° WSW 20:52:27 20° SSE
USA 215 3.4 20:45:38 20° SE 20:50:20 69° SW 20:56:53 10° WNW
Cosmos 1812 Rocket 3.5 20:47:57 14° S 20:51:47 70° E 20:56:15 10° NNE
Resurs 01 Rocket 2.4 20:50:18 11° S 20:54:26 51° W 20:58:50 10° NNW
IRIDIUM 114 4.3 20:49:28 10° S 20:54:42 89° W 20:59:58 10° N
Cosmos 1818 3.5 20:49:36 10° SSW 20:55:02 78° SE 21:00:33 10° NE
Cosmos 1455 4.0 20:52:31 10° SW 20:55:55 32° WNW 20:59:19 10° N
Cosmos 2219 Rocket 3.8 20:52:13 10° NW 20:57:02 29° WSW 21:01:50 10° SSW
Cosmos 44 3.4 20:52:02 10° SW 20:57:13 89° SE 21:02:40 10° NE
ERS-1 Rocket 3.3 20:54:40 26° SE 20:57:16 51° ENE 21:02:08 10° N
Cosmos 407 Rocket 3.7 20:53:35 15° S 20:57:39 48° ESE 21:02:38 10° NNE
Okean 3 Rocket 4.3 20:53:21 10° N 20:57:40 40° ENE 20:59:21 29° ESE
NOSS 0 Rocket 4.5 20:52:19 10° NW 20:58:22 55° WSW 21:03:07 17° S
Meteor 2-21 4.4 20:54:43 10° NNW 21:00:48 86° W 21:05:28 18° S
Cosmos 1766 Rocket 4.1 20:57:55 10° N 21:02:04 42° ENE 21:03:29 32° ESE
Cosmos 1633 2.5 20:58:55 10° NNW 21:02:33 78° W 21:04:09 31° S
IRIDIUM 103 4.5 20:58:39 10° S 21:03:51 76° W 21:09:07 10° N
CARTOSAT-1 3.5 21:04:22 32° SSE 21:06:18 72° ENE 21:10:38 10° N
IGS 5A 4.4 21:04:08 14° SSW 21:07:25 43° W 21:11:24 10° NNW
ATLAS 5 CENTAUR R/B 4.0 21:04:31 10° WNW 21:08:10 24° NNW 21:12:18 10° NE
Cosmos 405 Rocket 4.3 21:05:36 10° NNW 21:09:15 33° W 21:12:30 12° SSW
Meteor 1-4 Rocket 4.0 21:10:11 23° ENE 21:10:11 23° ENE 21:12:23 10° NE
Lacrosse 5 rocket 2.7 21:05:42 10° WNW 21:09:41 40° N 21:13:52 10° ENE
Cosmos 909 Rocket 4.0 21:07:13 10° SW 21:13:31 88° NW 21:20:09 10° NE
Cosmos 1023 Rocket 4.4 21:12:04 19° S 21:15:38 61° ESE 21:20:39 10° NNE
COSMOS 2455 3.7 21:18:15 28° ESE 21:18:26 28° ESE 21:23:24 10° NE
Cosmos 1869 3.8 21:18:39 40° ESE 21:18:54 40° E 21:22:38 10° NNE
SPOT 5 2.7 21:19:30 38° SSE 21:21:15 75° ENE 21:26:02 10° NNW
Cosmos 1140 Rocket 3.4 21:18:31 20° S 21:22:03 67° ESE 21:27:09 10° NNE
Cosmos 2237 Rocket 2.8 21:18:51 10° NW 21:24:19 51° WSW 21:27:26 24° S
Spot 2 Rocket 3.7 21:21:43 27° S 21:24:33 69° WSW 21:29:39 10° NNW
CZ-2C R/B 4.0 21:20:24 10° N 21:24:49 65° WNW 21:28:53 12° SSW
SeaSat 1 4.3 21:22:59 10° ENE 21:24:38 15° E 21:24:38 15° E
Terra 1.8 21:28:59 41° SE 21:30:31 68° ENE 21:35:16 10° N
Cosmos 389 Rocket 4.4 21:34:23 10° SW 21:37:30 29° WNW 21:40:42 10° N
Cosmos 2082 4.1 21:39:13 38° ESE 21:39:44 39° ESE 21:44:55 10° NE
USA 229 DEB 4.4 21:34:18 10° NW 21:41:17 54° NNE 21:46:08 22° ESE
USA 229 4.4 21:34:23 10° NW 21:41:22 54° NNE 21:46:15 22° E
Cosmos 2263 Rocket 4.1 21:42:46 14° E 21:42:46 14° E 21:44:21 10° ENE
Cosmos 468 Rocket 4.1 21:37:10 10° NNW 21:42:17 62° ENE 21:43:44 44° ESE
Cosmos 2227 Rocket 2.1 21:38:45 23° SSW 21:42:20 71° ESE 21:47:59 10° NNE
Meteor 2-8 Rocket 4.4 21:42:18 32° S 21:45:18 76° E 21:51:26 10° NNE
ARIANE 5 R/B 3.6 21:46:52 27° SSW 21:48:43 40° W 21:52:53 10° NNW
Cosmos 1842 Rocket 4.2 21:49:34 39° E 21:49:34 39° E 21:53:33 10° NNE
Cosmos 2297 Rocket 2.2 21:44:06 10° SSW 21:49:45 86° WNW 21:55:28 10° NNE
Cosmos 841 Rocket 4.3 21:45:04 10° NNW 21:49:59 39° NE 21:51:30 32° E
Cosmos 1190 Rocket 4.0 21:47:50 22° SSW 21:51:16 85° WNW 21:56:32 10° NNE
Cosmos 2219 3.1 21:47:37 14° SSW 21:52:30 88° WNW 21:58:11 10° NNE
H-2A R/B 3.3 21:49:11 10° NNE 21:53:25 71° ESE 21:53:41 68° SE
NOSS 3-1 (A) 4.3 21:52:11 10° NW 21:59:10 60° NE 22:04:04 26° ESE
Genesis I 4.2 21:56:30 10° NW 22:00:11 36° WSW 22:00:14 36° SW
ATLAS 2AS CENTAUR R/B 4.0 21:53:02 10° W 22:00:35 46° NNW 22:07:53 10° NE
Cosmos 921 Rocket 4.1 21:57:13 10° N 22:01:17 33° ENE 22:01:48 32° ENE
Timation 2 Rocket 4.0 21:55:02 10° SSW 22:01:38 89° E 22:07:57 10° NNE
Cosmos 1763 Rocket 3.3 21:56:51 10° NNW 22:01:58 83° ENE 22:02:59 58° SE
Cosmos 1862 3.3 21:58:12 10° N 22:02:04 70° ENE 22:02:04 70° ENE
Nadezhda 2 Rocket 4.4 21:57:12 10° N 22:03:32 90° WNW 22:05:44 44° S
Cosmos-2242 4.2 22:02:38 22° SW 22:05:01 40° WNW 22:09:07 10° N
Cosmos 1408 Rocket 3.3 22:01:26 10° N 22:05:46 87° W 22:06:07 76° S
Cosmos 676 Rocket 3.8 22:07:08 47° SSW 22:08:41 85° ESE 22:13:55 10° NNE
CZ-4C R/B 4.3 22:05:58 10° WNW 22:11:06 30° N 22:17:10 10° NE
CRYOSAT 2 4.3 22:10:15 58° S 22:11:14 82° W 22:16:11 10° N
Cosmos 1805 Rocket 4.4 22:07:11 10° N 22:11:11 36° ENE 22:11:11 36° ENE
Spot 4 4.5 22:11:46 40° E 22:12:24 42° ENE 22:16:59 10° N
SL-16 R/B 2.6 22:12:53 10° NW 22:18:25 53° WSW 22:19:46 43° SSW
Sich 1 4.0 22:17:12 10° N 22:20:54 34° ENE 22:20:54 34° ENE
Cosmos 1743 Rocket 3.5 22:17:00 10° N 22:21:16 74° ENE 22:21:16 74° ENE
Cosmos 540 Rocket 3.4 22:16:15 10° NNW 22:21:23 69° ENE 22:22:04 61° ESE
Meteor 2-15 Rocket 4.3 22:22:07 50° S 22:23:51 84° E 22:29:58 10° NNE
NOSS 3-1 (C) 3.9 22:18:12 10° NW 22:25:29 87° SW 22:28:42 42° SE
SL-08 ROCKET BODY 4.3 22:20:16 10° N 22:26:24 90° W 22:27:52 55° S
Cosmos 1570 Rocket 4.3 22:23:17 10° NNW 22:28:31 55° ENE 22:29:21 50° E
Cosmos 2221 2.5 22:30:07 81° N 22:30:07 81° N 22:34:13 10° N
SL-08 R/B 4.4 22:23:56 10° N 22:30:08 86° W 22:31:43 53° S
Cosmos 1386 Rocket 4.4 22:27:21 10° N 22:33:27 73° ENE 22:34:38 57° SE
USA 215 4.5 22:32:58 23° SW 22:34:08 25° SW 22:39:21 10° WNW
Cosmos 44 Rocket 3.4 22:36:36 63° E 22:36:36 63° E 22:41:22 10° NE
Aureole 1 Rocket 3.8 22:38:07 54° E 22:38:07 54° E 22:42:32 10° NE
Cosmos 1553 Rocket 3.8 22:39:11 57° S 22:40:33 86° E 22:46:41 10° N
Cosmos 1500 Rocket 3.7 22:36:27 10° NNW 22:40:50 71° W 22:40:50 71° W
Meteor 1-4 Rocket 4.3 22:44:18 27° WNW 22:44:24 27° WNW 22:47:27 10° N
Cosmos 1943 3.1 22:42:34 10° NNW 22:48:14 78° ENE 22:48:59 66° ESE
Cosmos 1741 Rocket 3.9 22:48:41 73° ESE 22:48:44 73° ESE 22:54:01 10° NNE
Lacrosse 5 rocket 2.0 22:45:09 10° WNW 22:49:25 56° NNE 22:49:47 54° NE
ALOS 2 3.2 22:49:56 49° ENE 22:49:56 49° ENE 22:53:56 10° N
Cosmos 1417 Rocket 4.4 22:49:46 57° S 22:51:11 88° E 22:57:30 10° N
Cosmos 1850 Rocket 3.8 22:54:08 82° SE 22:54:16 83° ESE 22:59:32 10° NNE
ATLAS 5 CENTAUR R/B 4.1 22:50:23 10° NW 22:54:20 24° NNE 22:58:50 10° ENE
Cosmos 2208 Rocket 3.9 22:58:04 10° NNW 23:03:25 82° ENE 23:03:42 78° ESE
COSMOS 2455 3.0 23:01:18 36° SW 23:03:54 72° NW 23:09:57 10° NE
SeaSat 1 2.3 22:59:21 10° NNE 23:04:20 90° WNW 23:04:24 88° SW
Cosmos 1606 3.8 23:09:02 42° N 23:09:02 42° N 23:11:42 10° N
Terra 3.8 23:07:51 18° WSW 23:08:44 19° W 23:12:07 10° NW
Cosmos 2315 Rocket 4.1 23:10:31 56° ESE 23:11:14 59° E 23:17:28 10° NNE
Iridium 4 Rocket 3.9 23:11:57 47° ENE 23:11:57 47° ENE 23:16:46 10° NNE
Cosmos 1151 Rocket 4.2 23:21:43 36° NE 23:21:43 36° NE 23:24:44 10° NNE
SL-24 DEB 4.4 23:21:37 67° WNW 23:21:37 67° WNW 23:25:53 10° N
Cosmos 2263 Rocket 2.0 23:24:25 79° ESE 23:24:25 79° ESE 23:29:59 10° NNE
Cosmos 2227 Rocket 3.9 23:21:59 10° WSW 23:26:54 29° NW 23:31:50 10° NNE
Cosmos 841 Rocket 4.3 23:27:03 10° NW 23:31:35 39° W 23:31:35 39° W
USA 229 DEB 4.0 23:25:22 10° NW 23:32:29 59° SW 23:33:33 54° SSW
USA 229 3.9 23:25:27 10° NW 23:32:35 59° SW 23:33:40 54° SSW
Cosmos 1603 4.0 23:27:01 10° NW 23:32:30 52° WSW 23:32:30 52° WSW
Meteor 2-17 Rocket 4.4 23:26:53 10° NNW 23:33:00 72° W 23:33:42 65° SW
Cosmos 2297 Rocket 4.3 23:30:09 10° W 23:34:39 24° NW 23:39:11 10° NNE
USA 281 3.5 23:33:03 44° ESE 23:35:06 63° NE 23:41:37 10° NNW
Cosmos 1844 Rocket 4.0 23:39:31 25° E 23:39:31 25° E 23:43:18 10° NE
Cosmos 921 Rocket 4.4 23:35:33 10° NW 23:38:35 31° WNW 23:38:35 31° WNW
Cosmos 2074 Rocket 4.2 23:36:07 10° N 23:42:20 60° ENE 23:43:22 53° ESE
Cosmos 1437 Rocket 4.1 23:43:52 37° NNW 23:43:52 37° NNW 23:46:24 10° N
Cosmos 1709 Rocket 4.1 23:39:54 10° NNW 23:46:01 59° W 23:46:44 55° WSW
Meteor 1-5 Rocket 4.4 23:41:03 10° N 23:46:48 60° ENE 23:47:20 57° E
NOSS 3-1 (A) 4.2 23:43:06 10° NW 23:50:19 54° SW 23:51:29 50° SSW
